Temperature
-11 -11 -11 -11 -11 -11 -11 -10 -10 -10 -9 -9 -9 -8 -8 -7 -6 -6 -5 -5 -4 -4 -3 -1 0 2 3 5 7 8 10 11 12 13 13 14 14 14
-11 -11 -11 -11 -11 -11 -11 -11 -10 -10 -10 -9 -9 -9 -8 -8 -7 -6 -6 -5 -5 -4 -3 -2 -0 2 3 5 6 8 9 11 12 13 13 13 14 14
-11 -11 -12 -12 -12 -12 -11 -11 -11 -10 -10 -10 -9 -9 -9 -8 -8 -7 -6 -6 -5 -4 -3 -2 -0 1 3 4 6 7 9 10 11 12 13 13 14 14
-11 -11 -12 -12 -12 -12 -12 -11 -11 -10 -10 -10 -10 -9 -9 -9 -8 -8 -7 -5 -4 -3 -2 -1 -0 1 3 4 5 7 8 10 11 12 13 13 13 14
-11 -11 -12 -12 -12 -12 -11 -11 -11 -10 -10 -11 -10 -10 -10 -9 -9 -8 -7 -6 -4 -3 -2 -1 -0 1 3 4 5 7 8 10 11 12 12 13 13 13
-11 -11 -12 -12 -12 -12 -11 -11 -10 -10 -11 -11 -11 -10 -10 -9 -9 -8 -7 -5 -4 -3 -2 -1 0 1 3 4 6 7 8 9 10 11 12 13 13 13
-10 -11 -11 -12 -11 -11 -11 -11 -10 -11 -11 -11 -11 -11 -11 -10 -10 -9 -8 -6 -4 -3 -2 -1 0 1 3 4 5 7 8 9 10 11 12 12 13 13
-10 -11 -11 -12 -12 -11 -11 -11 -11 -11 -11 -11 -11 -11 -11 -11 -10 -10 -9 -8 -6 -3 -2 -1 0 1 3 4 5 7 8 9 10 11 12 12 13 13
-10 -11 -11 -12 -12 -11 -11 -12 -12 -12 -12 -11 -12 -12 -11 -11 -11 -10 -9 -8 -6 -3 -3 -1 0 1 3 4 5 7 8 9 9 10 11 12 13 13
-11 -11 -11 -12 -12 -11 -11 -12 -12 -12 -12 -12 -12 -12 -11 -11 -11 -10 -10 -8 -5 -3 -3 -2 1 2 3 4 5 7 8 8 9 10 11 11 12 13
-11 -11 -12 -12 -12 -11 -12 -12 -12 -12 -12 -12 -12 -12 -11 -11 -10 -10 -9 -8 -6 -3 -2 -1 1 2 3 4 5 6 7 8 9 10 11 11 12 12
-11 -11 -12 -12 -11 -11 -12 -12 -12 -12 -12 -12 -12 -12 -11 -11 -10 -10 -9 -8 -7 -4 -2 -1 1 2 3 4 5 6 7 8 9 10 11 11 11 11
-11 -11 -12 -12 -11 -12 -12 -12 -12 -12 -13 -13 -12 -12 -12 -11 -10 -9 -8 -7 -6 -5 -2 -1 1 2 4 4 5 6 7 8 9 10 10 11 11 11
-11 -11 -11 -11 -11 -12 -12 -12 -12 -13 -13 -13 -13 -12 -12 -11 -10 -8 -7 -6 -5 -4 -2 -2 -0 2 3 4 5 6 6 8 9 9 10 11 11 11
-11 -11 -11 -11 -12 -12 -12 -12 -13 -13 -13 -13 -13 -12 -12 -11 -9 -8 -6 -5 -4 -3 -2 -2 -1 1 3 4 5 6 6 7 8 9 10 10 10 10
-10 -10 -11 -11 -12 -12 -12 -12 -13 -13 -13 -13 -13 -12 -12 -11 -9 -8 -6 -5 -4 -3 -2 -1 -0 1 3 4 5 6 7 7 8 9 10 10 10 10
-10 -10 -10 -11 -11 -12 -12 -12 -12 -13 -13 -13 -13 -13 -12 -11 -9 -8 -6 -5 -4 -3 -2 -1 -0 1 2 4 5 6 6 7 8 9 9 10 10 10
-10 -10 -11 -11 -11 -12 -12 -12 -12 -13 -13 -13 -13 -13 -12 -11 -10 -8 -7 -5 -4 -3 -2 -1 -0 1 2 3 4 5 6 7 7 8 9 9 10 10
-10 -10 -10 -11 -11 -11 -11 -12 -12 -12 -12 -12 -13 -12 -12 -11 -10 -9 -7 -6 -4 -3 -2 -1 -0 1 2 3 3 4 6 6 7 8 9 9 9 9
-10 -10 -10 -10 -11 -11 -11 -11 -11 -12 -12 -12 -12 -12 -12 -12 -11 -10 -8 -7 -5 -3 -2 -2 -1 -0 1 2 3 4 5 6 7 7 8 8 9 9
-10 -10 -10 -10 -10 -10 -11 -11 -11 -11 -12 -12 -12 -12 -12 -11 -11 -10 -9 -7 -6 -4 -3 -2 -1 -1 0 1 2 3 4 5 6 7 7 8 8 7
-10 -10 -10 -10 -10 -10 -10 -10 -11 -11 -11 -11 -11 -11 -11 -11 -11 -10 -9 -8 -7 -5 -4 -3 -2 -1 0 1 2 2 3 3 5 6 6 7 8 7
-10 -10 -10 -10 -10 -10 -10 -10 -10 -11 -11 -11 -11 -11 -11 -11 -11 -10 -9 -8 -7 -6 -4 -3 -2 -1 -0 0 1 1 2 2 3 4 5 6 7 8
Wind_Speed
9 10 9 10 10 10 11 11 11 13 14 11 9 10 10 12 17 15 11 18 21 23 23 23 22 21 21 20 18 17 15 14 13 19 27 33 36 36
9 10 10 10 10 10 10 10 10 11 13 10 10 11 13 14 20 16 14 22 23 24 25 24 23 23 22 21 18 17 15 13 13 17 25 31 33 34
10 10 12 12 10 10 10 10 10 10 13 12 10 11 13 13 13 13 14 12 15 24 25 25 24 24 23 21 19 17 14 13 12 15 22 28 31 31
12 11 12 12 11 11 10 12 11 11 11 15 12 11 12 12 13 13 13 13 11 21 24 25 24 23 22 21 19 17 13 11 11 13 19 23 28 30
12 12 12 11 12 11 12 12 11 11 9 11 13 11 10 10 12 13 13 11 13 16 21 23 24 24 23 22 20 17 13 10 9 10 15 20 24 29
13 12 11 11 12 13 12 12 12 10 9 10 11 11 10 9 9 10 12 10 11 12 15 16 19 22 23 22 21 18 14 10 9 9 12 17 21 26
12 11 11 15 18 16 14 12 11 8 9 10 11 10 9 9 9 9 12 12 12 9 8 10 10 10 11 18 19 17 14 12 10 10 11 15 19 24
10 9 10 13 17 23 25 23 19 13 12 10 10 10 10 9 9 10 11 11 8 5 7 9 8 9 9 10 14 16 15 12 10 10 11 14 17 22
8 8 9 10 15 11 17 18 17 21 20 13 11 11 11 10 11 12 11 12 12 10 9 8 7 9 8 11 16 16 14 13 11 10 11 14 16 20
8 8 8 8 12 15 10 9 10 11 15 11 10 11 11 11 11 12 12 13 14 12 10 6 7 7 8 8 14 16 14 12 11 11 12 14 15 17
8 8 9 8 19 23 12 11 13 10 14 19 20 17 17 16 13 7 7 8 8 6 4 5 5 5 5 6 9 15 14 12 12 12 13 15 16 16
7 7 14 16 21 22 11 11 14 11 11 13 14 15 12 12 14 7 6 8 6 5 4 4 4 3 3 4 6 7 8 10 12 13 15 17 18 13
8 7 9 20 21 21 17 11 16 16 12 11 10 9 8 7 7 7 7 8 8 7 5 5 4 3 2 4 4 5 5 5 7 9 15 18 19 15
9 9 10 20 20 20 16 19 22 18 10 10 10 9 9 8 8 8 9 9 11 12 12 8 4 4 3 2 4 4 4 5 6 7 10 16 18 16
9 17 19 21 18 14 18 21 18 12 11 11 11 11 10 10 9 8 7 8 9 10 10 10 8 7 5 1 3 4 4 3 5 8 10 12 13 14
10 14 19 18 15 15 15 13 11 11 12 11 11 11 10 10 8 8 6 5 4 4 5 6 7 6 3 2 1 4 4 4 6 8 9 9 10 11
10 6 6 8 8 8 8 9 9 11 12 12 11 11 11 11 10 9 7 6 4 5 5 4 5 4 2 2 2 4 4 3 5 7 10 8 8 12
11 8 9 10 10 10 10 10 9 11 12 12 12 12 12 11 11 9 8 6 6 6 6 5 5 3 2 4 9 3 3 2 3 6 9 9 8 9
8 8 9 10 9 9 8 7 8 10 10 11 12 12 12 12 11 11 10 9 7 6 6 5 5 4 2 2 6 11 3 2 4 5 7 7 7 8
7 8 9 9 9 8 8 7 7 8 9 10 11 11 12 12 12 12 11 11 8 7 7 6 6 5 3 1 2 6 12 4 5 7 7 9 8 12
8 9 9 10 9 8 8 7 7 7 8 9 9 10 11 11 11 12 11 15 11 8 8 7 7 8 3 2 4 5 9 17 13 7 8 12 10 8
8 9 9 10 9 8 8 7 6 6 7 8 8 9 10 10 11 12 12 11 10 8 7 7 7 6 4 4 7 7 7 10 17 22 19 10 7 9
8 9 9 9 9 8 7 7 7 6 6 7 8 9 10 10 10 10 11 11 10 10 9 8 7 6 5 5 7 9 12 11 11 14 15 20 26 31
Wind_Direction
302 303 306 307 305 306 304 301 298 303 306 306 308 307 310 307 303 301 288 283 277 273 271 269 269 270 271 274 277 280 283 273 254 219 206 205 206 205
299 301 304 307 307 306 307 306 301 298 300 303 304 304 308 307 303 304 302 293 283 277 272 268 266 265 266 267 271 272 277 268 250 222 209 205 205 204
296 299 301 303 304 307 307 306 305 303 300 304 301 301 300 301 300 298 293 287 280 275 270 266 261 259 259 260 262 265 269 267 246 224 211 206 203 200
287 290 295 303 302 304 303 302 300 297 299 306 306 304 300 300 299 298 296 287 277 273 267 263 259 254 253 253 254 256 260 265 245 225 212 206 202 197
277 280 286 292 296 298 296 297 296 299 297 299 303 303 302 304 309 305 300 290 283 276 268 262 255 250 248 247 248 246 247 253 239 224 211 203 198 194
269 272 277 283 287 289 296 297 299 300 299 299 300 301 302 307 313 317 314 306 296 285 272 264 253 245 242 241 241 238 237 242 232 220 211 200 194 190
269 267 275 293 306 310 313 313 313 311 308 302 299 301 304 314 314 314 311 311 301 277 274 265 252 237 229 234 235 231 227 229 225 218 212 201 192 187
279 272 279 293 306 318 318 320 328 322 311 303 300 298 298 300 304 305 306 308 304 313 321 287 257 238 224 220 219 216 216 217 214 210 205 196 190 185
289 282 295 307 317 302 309 326 326 321 316 310 301 292 290 289 291 294 293 293 285 291 304 283 260 242 225 219 209 206 208 206 202 203 196 189 184 180
296 291 289 292 307 314 328 325 309 304 307 306 291 285 282 277 271 276 285 290 285 273 253 260 257 240 225 210 204 201 200 197 195 199 191 184 180 175
308 313 319 307 316 331 341 325 317 313 323 324 320 315 310 305 297 287 284 290 292 287 258 247 257 238 212 198 198 196 195 195 193 195 187 180 174 168
317 322 330 326 329 338 340 326 323 330 332 325 322 317 311 304 305 291 273 272 275 285 304 312 276 245 194 183 179 184 187 194 195 192 184 177 169 170
332 326 319 329 337 340 342 331 336 346 335 324 320 316 311 299 288 274 257 251 251 259 293 333 303 289 222 162 166 173 171 174 185 188 182 174 172 172
333 324 322 337 343 344 343 344 350 347 335 333 332 330 326 318 305 289 271 253 243 248 265 283 283 298 304 159 150 155 162 168 172 179 178 172 175 173
334 338 343 347 348 342 344 351 352 344 343 342 339 335 328 319 313 306 290 271 256 248 252 254 255 274 282 253 143 149 148 164 175 170 166 171 176 173
332 337 343 345 348 348 349 347 347 348 349 342 339 336 334 335 335 331 323 320 301 285 264 262 268 269 276 284 171 148 143 158 170 163 156 159 163 166
346 337 332 337 343 344 345 347 348 351 352 348 348 347 348 350 349 347 344 346 349 342 336 326 307 284 290 345 153 135 133 140 161 156 153 148 156 162
356 342 342 343 345 346 347 347 348 352 353 352 353 353 353 354 354 354 358 359 360 353 348 340 335 330 354 35 27 101 99 113 142 144 144 141 143 149
356 340 340 340 340 340 341 342 343 344 347 352 355 356 356 357 359 1 3 2 1 358 351 346 351 356 42 53 12 16 57 111 124 117 124 125 131 144
344 340 338 337 338 338 338 339 339 341 348 353 356 357 358 0 3 4 3 3 359 357 358 3 7 6 17 41 43 20 23 65 119 116 111 103 93 102
341 339 336 335 335 335 335 335 336 339 347 351 355 357 359 1 3 3 2 4 7 2 2 358 341 340 332 40 82 56 39 46 65 96 121 121 114 114
337 336 333 332 333 332 333 335 338 343 349 353 354 357 358 2 4 2 2 2 2 359 352 348 349 2 28 74 93 89 68 58 54 54 52 77 128 140
330 330 328 328 330 331 334 337 342 348 353 355 356 357 359 2 3 4 2 2 3 3 4 6 11 29 49 72 90 90 84 77 73 69 61 76 93 105
Height
1447 1442 1436 1430 1425 1421 1416 1411 1406 1397 1390 1386 1383 1380 1378 1375 1374 1374 1373 1373 1373 1374 1375 1376 1378 1381 1385 1389 1395 1400 1406 1412 1418 1425 1432 1442 1452 1462
1443 1437 1431 1425 1420 1415 1411 1407 1403 1397 1389 1383 1380 1376 1373 1371 1369 1367 1366 1366 1366 1366 1367 1369 1371 1374 1378 1383 1388 1393 1399 1405 1411 1417 1425 1433 1443 1454
1438 1432 1427 1421 1415 1410 1406 1402 1398 1393 1386 1379 1376 1372 1369 1365 1362 1360 1359 1358 1357 1358 1359 1361 1363 1366 1371 1376 1381 1387 1392 1398 1404 1410 1417 1426 1435 1446
1432 1427 1422 1416 1411 1406 1401 1397 1392 1388 1383 1376 1370 1367 1364 1360 1357 1354 1352 1350 1350 1350 1352 1353 1356 1359 1363 1369 1374 1380 1385 1391 1397 1404 1411 1418 1427 1437
1426 1421 1416 1412 1407 1402 1397 1392 1387 1383 1378 1372 1366 1362 1358 1356 1352 1348 1345 1344 1343 1343 1344 1346 1349 1352 1356 1362 1367 1373 1379 1385 1391 1397 1404 1411 1420 1429
1420 1416 1412 1407 1402 1398 1393 1387 1382 1377 1372 1367 1362 1357 1354 1351 1348 1343 1339 1338 1336 1336 1338 1340 1342 1345 1349 1354 1361 1366 1372 1378 1384 1391 1397 1404 1412 1421
1414 1411 1407 1403 1399 1394 1389 1383 1378 1372 1367 1362 1357 1352 1348 1345 1343 1339 1336 1332 1331 1332 1332 1333 1336 1339 1342 1347 1353 1359 1366 1372 1378 1385 1391 1398 1405 1414
1410 1406 1402 1398 1394 1389 1384 1379 1374 1368 1362 1357 1352 1347 1343 1341 1338 1335 1333 1330 1327 1328 1327 1328 1330 1332 1336 1341 1346 1353 1359 1365 1372 1379 1385 1392 1399 1407
1407 1402 1398 1394 1390 1384 1378 1373 1368 1363 1358 1353 1347 1342 1338 1335 1333 1330 1328 1326 1323 1323 1324 1322 1325 1327 1330 1335 1340 1347 1353 1360 1366 1373 1380 1387 1394 1400
1404 1399 1395 1390 1385 1380 1374 1368 1362 1357 1352 1347 1341 1337 1333 1330 1328 1326 1324 1321 1319 1319 1320 1319 1319 1321 1325 1329 1334 1341 1347 1354 1360 1368 1375 1382 1389 1396
1401 1396 1392 1387 1382 1377 1370 1364 1357 1351 1346 1340 1335 1331 1328 1325 1324 1322 1320 1318 1315 1314 1315 1315 1315 1317 1320 1324 1329 1336 1342 1349 1355 1363 1371 1378 1385 1392
1399 1393 1388 1384 1379 1374 1368 1361 1354 1348 1341 1334 1329 1325 1322 1319 1317 1316 1315 1314 1312 1311 1312 1312 1312 1314 1316 1319 1324 1330 1337 1343 1350 1358 1366 1374 1382 1389
1397 1391 1386 1382 1377 1372 1366 1360 1354 1346 1338 1332 1326 1322 1318 1315 1312 1311 1310 1309 1308 1308 1308 1309 1308 1310 1312 1315 1320 1326 1332 1338 1345 1353 1362 1370 1378 1386
1396 1390 1385 1381 1375 1370 1364 1359 1352 1344 1337 1331 1325 1319 1315 1311 1308 1306 1305 1304 1304 1304 1305 1305 1305 1306 1308 1311 1315 1322 1328 1334 1341 1349 1357 1366 1376 1384
1396 1391 1385 1380 1374 1368 1363 1357 1350 1343 1337 1330 1324 1319 1314 1309 1305 1303 1301 1301 1301 1302 1302 1302 1303 1303 1306 1308 1312 1318 1324 1330 1337 1345 1353 1362 1371 1380
1395 1390 1385 1379 1373 1368 1362 1356 1350 1344 1338 1331 1325 1319 1313 1308 1304 1301 1300 1299 1299 1300 1300 1301 1301 1302 1304 1306 1311 1316 1322 1328 1334 1342 1350 1359 1368 1377
1395 1390 1383 1378 1372 1367 1362 1357 1351 1345 1338 1332 1326 1320 1314 1309 1305 1302 1300 1299 1299 1299 1299 1300 1301 1301 1303 1306 1310 1315 1320 1326 1332 1339 1347 1356 1365 1373
1395 1389 1384 1379 1374 1368 1363 1358 1352 1347 1341 1335 1328 1322 1316 1311 1307 1304 1302 1301 1300 1300 1300 1300 1301 1302 1304 1306 1309 1314 1318 1324 1330 1337 1344 1353 1362 1371
1395 1390 1385 1380 1375 1371 1366 1360 1355 1350 1344 1338 1331 1325 1320 1315 1310 1306 1304 1302 1302 1302 1302 1302 1302 1302 1304 1306 1310 1314 1318 1322 1329 1336 1343 1351 1359 1368
1395 1391 1386 1382 1377 1372 1368 1363 1358 1352 1347 1341 1335 1329 1323 1318 1314 1310 1307 1305 1304 1303 1303 1304 1304 1304 1305 1307 1310 1314 1319 1324 1328 1334 1340 1349 1358 1368
1395 1392 1388 1383 1379 1374 1370 1365 1360 1355 1350 1344 1339 1333 1327 1322 1318 1314 1311 1309 1307 1305 1305 1306 1306 1308 1309 1310 1312 1315 1320 1325 1329 1333 1340 1347 1355 1365
1396 1392 1389 1385 1380 1376 1372 1367 1363 1358 1353 1348 1343 1337 1332 1327 1323 1318 1315 1312 1310 1309 1309 1309 1310 1311 1312 1313 1315 1318 1323 1327 1331 1336 1342 1348 1352 1362
1396 1393 1389 1386 1382 1377 1373 1369 1365 1361 1356 1352 1347 1342 1337 1332 1327 1324 1320 1317 1315 1313 1313 1313 1314 1314 1316 1317 1319 1323 1327 1331 1335 1339 1345 1351 1357 1365